Weather Roundup
Issued by NWS

Home | Current Version | Previous Version | Graphics & Text | Print | Product List | Glossary Off
Versions: 1 2 3 4 5 6 7 8 9 10 11 12 13 14 15 16 17 18 19 20 21 22 23 24 25 26 27 28 29 30 31 32 33 34 35 36 37 38 39 40 41 42 43 44 45 46 47 48 49 50

572
NZUS93 KARX 011459
HRRWXR

CURRENT HOURLY OBSERVATIONS ACROSS
MUCH OF THE UPPER MISSISSIPPI VALLEY
NATIONAL WEATHER SERVICE LA CROSSE WI
1000 AM CDT SUN MAY 01 2016


...SOUTHEAST MINNESOTA...


CITY           SKY/WX    TMP DP  RH WIND       PRES   REMARKS
ROCHESTER      CLOUDY    45  37  73 NE14      30.10S
ROCHESTER/MAYO CLOUDY    46  36  69 NE5       30.11S
WINONA         CLOUDY    48  37  66 N5        30.12S
AUSTIN         CLOUDY    45  37  76 NE10G17   30.09S
ALBERT LEA     NOT AVBL
DODGE CENTER   CLOUDY    45  41  87 NE14G20   30.10S
PRESTON        CLOUDY    44  36  74 NE14      30.09S
OWATONNA       CLOUDY    46  37  71 N14       30.12S
FARIBAULT      NOT AVBL
$$

...ELSEWHERE IN MINNESOTA...


CITY           SKY/WX    TMP DP  RH WIND       PRES   REMARKS
MINNEAPOLIS    PTSUNNY   49  35  58 NE14      30.17S
INTNL FALLS    SUNNY     48  29  47 NE6       30.30F
DULUTH         PTSUNNY   45  35  68 E13       30.25S
RED WING       CLOUDY    54  36  50 NE7       30.12F
REDWOOD FALLS  MOSUNNY   48  34  58 N12G17    30.17F
MANKATO        CLOUDY    46  37  71 N15       30.14S
WORTHINGTON    CLOUDY    41  37  86 N14       30.15R
FAIRMONT       CLOUDY    43  34  70 N12G17    30.11S
$$

...SOUTHWEST WISCONSIN...


CITY           SKY/WX    TMP DP  RH WIND       PRES   REMARKS
LA CROSSE      CLOUDY    52  37  56 N10       30.09F
PRAIRIE DU CHI CLOUDY    48  38  69 NE6G24    30.05S
BOSCOBEL       CLOUDY    51  40  65 VRB6      30.06S
LONE ROCK      NOT AVBL
PLATTEVILLE    CLOUDY    47  44  87 NE17G25   30.02S
FORT MC COY    CLOUDY    48  37  64 NE9       30.10F
MAUSTON-NEW LI CLOUDY    47  37  67 NE5       30.08S
VIROQUA        CLOUDY    46  38  73 NE10      30.07S
WIS DELLS      DRIZZLE   44  38  78 NE8       30.07S
$$

...ELSEWHERE IN WISCONSIN...


CITY           SKY/WX    TMP DP  RH WIND       PRES   REMARKS
MILWAUKEE      CLOUDY    43  41  93 N17       30.04S
MADISON        CLOUDY    47  40  76 NE16      30.04F
GREEN BAY      CLOUDY    47  38  71 N13       30.11R
EAU CLAIRE     NOT AVBL
BLACK RVR FLS  CLOUDY    46  36  68 NE8       30.12S
MEDFORD        CLOUDY    47  35  63 NE7       30.12S
WAUSAU         CLOUDY    51  32  48 E9        30.11S
WIS RAPIDS     CLOUDY    48  32  53 NE8       30.12S
MARSHFIELD     CLOUDY    50  33  52 NE9       30.11S
RICE LAKE      SUNNY     46  36  66 N13       30.18S
$$

...NORTHEAST IOWA...


CITY           SKY/WX    TMP DP  RH WIND       PRES   REMARKS
WATERLOO       CLOUDY    45  40  82 NE16      30.04R
DUBUQUE        CLOUDY    44  42  93 NE13      30.02R
DECORAH        CLOUDY    45  41  87 NE9G20    30.06R
MASON CITY     CLOUDY    45  40  82 NE21      30.09R
CHARLES CITY   CLOUDY    45  43  93 NE14G23   30.06R
OELWEIN        CLOUDY    45  43  93 NE17      30.03S
$$

...ELSEWHERE IN IOWA...


CITY           SKY/WX    TMP DP  RH WIND       PRES   REMARKS
DES MOINES     DRIZZLE   46  43  89 NE13      30.00S
IOWA CITY      CLOUDY    47  45  93 E8        30.01R
FORT DODGE     CLOUDY    43  39  87 NE14      30.07R
MARSHALLTOWN   CLOUDY    44  43  96 NE15      30.02R FOG
CEDAR RAPIDS   CLOUDY    45  45 100 NE14      29.99R
$$

...NORTHERN ILLINOIS...


CITY           SKY/WX    TMP DP  RH WIND       PRES   REMARKS
CHICAGO-OHARE  FOG       44  44 100 NE12      30.00S VSB 1/4
CHICAGO-MIDWAY CLOUDY    45  43  93 N13       30.00R FOG
MOLINE         CLOUDY    49  45  86 NE10      29.97S
ROCKFORD       CLOUDY    47  43  86 NE10      30.04S
PEORIA         CLOUDY    51  49  92 NE8       29.96R FOG
$$

NOTE: "FAIR" INDICATES FEW OR NO CLOUDS BELOW 12,000 FEET WITH NO
SIGNIFICANT WEATHER AND/OR OBSTRUCTIONS TO VISIBILITY. WIND
SPEEDS ARE IN MILES-PER-HOUR.




USA.gov is the U.S. government's official web portal to all federal, state and local government web resources and services.